User: anonymous   Login
Location: Clairmont
(55.2667°N, 118.8000°W)
Time: 10:24:11
(UTC+00:00)
Language:

N. Korean satellite - Orbit

View from above orbital plane
View from above orbital plane
View from above satellite
View from above satellite

Ground track
Ground track

The orbit data is extracted from the following two-line orbital elements,

1 39026U 12072A   21209.94010245  .00002467  00000-0  84969-4 0  9990
2 39026  97.2456 201.8036 0033830 234.6493 125.1585 15.30444015479377
Epoch (UTC): 28 July 2021 22:33:44
Eccentricity: 0.0033830
inclination: 97.2456°
perigee height: 451 km
apogee height: 497 km
right ascension of ascending node: 201.8036°
argument of perigee: 234.6493°
revolutions per day: 15.30444015
mean anomaly at epoch: 125.1585°
orbit number at epoch: 47937

The dashed part of the orbit path shows where the satellite is in the earth's shadow,  

DLR